Wind_Speed
29 29 31 31 28 27 26 22 20 20 16 16 14 13 11 9 8 8 10 10 9 10 8 9 9 8 8 8 7 7 6 5 5 4 3 2 2 1 1 1 1 2 3 4 4 5 6 8 14
32 32 33 34 32 30 26 23 22 19 17 19 17 14 12 12 11 10 10 12 10 9 9 8 7 7 6 5 5 5 5 4 3 3 3 2 1 1 2 3 3 5 6 8 9 10 11 13 13
33 34 35 37 36 31 28 25 24 20 21 18 18 16 15 12 10 11 11 13 12 11 10 10 9 8 7 7 6 6 5 6 7 7 7 6 5 5 6 8 10 11 13 15 17 19 21 22 22
34 36 38 38 34 33 31 29 26 22 22 21 20 18 16 15 12 11 10 14 14 13 11 10 9 7 7 6 5 4 4 5 6 7 7 9 11 11 10 11 13 15 18 20 21 19 16 15 14
37 38 40 38 37 34 33 32 32 28 24 21 23 20 18 17 15 14 12 13 14 13 12 11 9 8 6 5 5 5 4 2 2 2 2 3 3 6 9 10 11 11 13 15 17 17 17 16 17
40 41 40 38 36 35 35 32 31 30 26 25 25 23 20 20 19 17 15 15 15 14 13 12 10 8 7 6 4 4 4 4 2 2 3 4 5 6 6 7 9 11 13 14 15 15 15 16 16
44 42 40 38 39 38 32 29 25 30 25 25 25 24 22 21 20 18 17 17 17 16 15 13 12 10 8 6 5 4 3 3 3 3 3 3 4 6 8 9 10 11 13 14 14 14 14 14 14
51 49 44 40 41 37 33 32 28 28 26 25 26 25 24 22 21 20 19 18 18 18 17 15 12 10 8 7 6 5 4 3 3 3 5 6 7 7 9 10 10 11 11 12 13 14 15 15 16
46 60 44 40 42 39 37 35 36 27 28 25 26 25 24 24 23 21 21 20 20 19 18 16 14 12 10 8 8 6 5 5 5 5 6 7 8 9 10 10 12 13 14 14 15 16 17 18 18
43 56 52 43 42 43 41 40 38 35 25 22 25 26 26 26 25 23 23 23 22 22 20 18 16 14 12 11 10 9 7 7 6 7 8 9 9 10 11 12 13 14 16 16 17 19 19 20 21
46 44 56 51 47 44 44 42 41 40 34 27 25 28 26 26 27 25 25 25 24 21 20 20 18 17 15 14 13 11 10 8 7 7 8 9 9 9 10 11 12 13 15 16 18 19 19 21 23
51 47 45 59 55 47 46 45 44 43 40 36 30 29 29 28 28 27 26 26 25 23 21 21 20 19 17 17 16 14 13 12 11 11 10 10 12 15 15 16 16 18 19 20 21 22 24 26 26
56 51 51 51 55 56 51 48 47 45 44 39 33 29 30 30 30 31 28 27 26 24 24 22 20 20 19 18 18 16 15 15 14 14 14 15 16 16 18 19 20 22 23 24 26 27 27 29 32
59 52 54 54 52 56 54 50 50 49 48 45 40 33 29 29 30 32 30 29 29 27 27 24 21 21 21 20 20 17 17 17 17 18 19 20 22 22 22 24 24 25 26 27 28 30 31 33 35
60 55 57 57 55 59 53 53 53 49 46 45 40 36 33 31 30 32 33 33 32 31 29 25 23 23 22 22 21 19 19 20 21 21 22 24 25 26 27 28 29 30 30 30 31 32 36 39 40
56 58 62 59 59 60 65 59 52 52 51 52 46 42 35 33 33 32 33 32 32 30 30 26 25 24 23 24 22 21 22 22 23 24 25 27 28 29 30 31 33 34 35 35 35 37 41 43 44
51 66 64 61 62 57 59 68 63 55 53 53 48 43 40 36 34 33 32 32 33 32 31 29 27 26 26 24 25 24 24 24 26 28 28 30 31 32 34 35 36 38 39 40 40 41 44 45 46
50 60 64 60 63 60 59 57 62 62 55 50 47 42 40 38 37 37 34 34 32 30 31 30 29 29 27 26 27 26 26 28 30 31 31 32 33 35 36 37 39 40 41 45 47 46 45 45 47
46 56 63 62 52 57 58 54 55 58 61 53 49 47 41 39 39 38 37 35 32 30 29 29 30 31 29 30 31 30 30 30 30 32 33 34 36 38 40 41 42 44 47 49 50 50 48 48 51
51 40 59 61 64 63 66 55 56 56 57 55 50 46 44 42 39 39 38 36 33 32 32 33 33 33 32 32 32 32 31 32 33 34 36 37 39 40 43 46 48 48 53 49 51 51 50 47 53
50 50 53 47 61 65 59 51 55 54 51 53 59 52 45 43 38 39 40 38 37 37 35 36 36 36 36 34 34 35 35 35 35 37 38 41 42 43 49 52 50 54 46 48 48 51 49 54 52
48 47 42 56 55 71 69 63 48 61 60 54 53 52 47 48 42 40 39 38 37 38 38 37 36 37 38 37 37 36 38 40 40 40 41 44 49 53 54 51 44 48 48 49 53 51 49 56 59
52 34 40 43 50 57 63 67 61 52 56 62 61 58 51 49 47 43 40 39 37 38 41 41 40 40 41 40 40 40 41 41 42 42 51 50 46 47 47 48 49 53 47 54 54 54 57 59 58
55 24 28 48 45 54 52 58 62 62 58 56 57 52 52 46 47 49 47 46 43 41 37 38 40 43 46 45 42 42 40 42 46 47 52 45 51 42 47 49 47 46 44 47 47 50 52 50 54
69 42 27 40 50 57 47 59 58 53 56 62 53 53 53 56 51 49 49 49 49 49 44 44 39 39 41 40 39 42 41 43 38 49 47 45 47 46 45 48 46 46 47 51 53 54 56 57 54
59 45 30 30 47 48 49 54 57 53 50 52 53 49 53 56 55 52 53 54 53 52 45 39 39 41 42 43 41 37 50 43 45 44 42 50 50 49 48 48 44 46 50 53 56 57 58 55 54
66 41 27 25 22 49 48 50 50 49 52 44 45 47 48 55 57 56 51 55 53 55 57 55 48 43 44 45 46 48 44 39 37 44 44 47 45 46 47 48 52 53 55 57 58 57 58 58 60
41 29 21 20 26 33 44 49 53 45 46 41 43 42 42 45 44 47 46 48 49 58 54 53 52 51 50 53 46 40 37 41 46 45 46 43 45 48 49 52 54 58 59 58 56 58 59 59 60
48 28 26 14 19 24 34 40 43 37 39 35 36 30 28 28 31 35 34 34 35 39 38 35 38 39 38 37 33 31 32 33 34 38 44 47 51 54 55 57 58 56 56 58 58 60 62 62 62
38 39 28 12 12 24 36 36 32 33 38 36 37 35 32 35 35 37 37 34 32 30 34 32 34 34 35 32 29 30 36 40 43 47 50 51 53 55 56 53 53 55 58 60 62 62 63 63 62
Wind_Direction
219 214 214 215 214 213 216 216 218 210 190 186 194 181 184 175 197 190 188 173 169 151 153 144 142 138 134 129 130 135 136 133 117 121 125 159 158 114 74 20 17 7 4 0 350 334 326 318 309
217 219 218 218 219 219 218 220 219 222 206 190 192 193 192 198 181 201 200 194 185 184 178 174 172 168 169 169 182 185 189 188 198 220 230 228 232 283 292 313 321 316 313 309 307 304 304 306 307
220 220 222 221 221 222 221 219 228 223 218 210 194 193 196 209 187 200 199 201 198 199 200 202 204 209 206 206 221 237 245 243 243 244 247 256 259 261 274 285 290 294 293 292 292 293 294 294 295
223 223 224 223 222 225 223 219 223 220 212 215 211 200 199 214 195 207 208 200 196 200 208 206 201 206 215 218 216 219 229 248 256 251 255 255 257 266 271 275 281 285 288 289 290 294 296 297 298
226 226 227 225 224 226 226 228 225 225 221 228 229 211 206 211 209 209 206 208 192 194 194 192 186 183 189 186 191 197 217 232 252 246 271 307 304 288 286 290 292 294 294 294 296 297 297 296 294
233 228 228 229 228 225 227 234 236 226 227 230 228 223 213 217 216 213 209 205 199 192 192 190 187 180 180 176 180 203 219 214 204 230 258 277 287 288 297 302 303 304 307 310 313 312 302 299 298
231 232 230 229 230 226 225 230 229 224 220 225 222 225 224 215 219 211 212 209 204 198 195 198 196 192 194 190 191 201 225 233 212 225 240 256 270 288 300 306 310 314 317 322 320 319 313 313 301
230 235 230 230 232 228 223 217 222 215 223 229 219 217 220 216 213 213 213 212 213 207 203 203 209 211 208 212 216 222 225 230 237 260 283 287 295 304 311 314 314 313 314 317 315 315 315 314 313
231 231 228 232 232 231 221 217 219 223 229 230 227 218 218 218 216 214 218 216 213 216 212 212 217 220 227 229 238 243 245 237 248 264 272 286 300 304 304 304 305 306 308 309 311 313 315 314 309
231 227 232 233 232 232 226 222 219 218 223 228 236 224 218 221 223 218 216 221 218 217 218 220 220 227 232 235 238 239 242 244 251 270 280 288 292 295 294 296 299 303 304 308 309 313 315 311 310
230 234 228 230 233 229 229 226 224 222 220 234 236 233 222 221 226 222 221 223 226 225 225 224 227 227 233 237 239 242 241 245 254 270 280 292 301 304 304 308 311 313 312 314 314 313 310 309 312
227 228 229 230 233 228 230 227 226 224 224 231 233 237 226 225 227 226 223 223 223 227 230 230 228 231 232 237 237 237 238 245 252 257 267 282 298 306 310 315 316 314 315 316 314 312 313 314 315
231 226 224 230 233 229 227 226 224 226 223 231 235 236 232 229 230 229 225 226 224 223 228 229 230 232 234 237 242 244 246 249 256 263 270 275 280 288 299 303 305 306 309 310 309 308 307 306 306
233 229 227 226 230 225 224 225 225 225 223 231 236 233 236 230 232 232 226 222 223 223 227 226 224 230 235 241 245 249 252 253 259 264 269 280 289 294 297 298 300 301 303 304 305 303 302 303 300
231 229 228 229 226 225 222 225 227 222 220 223 224 232 239 232 228 231 226 225 222 224 228 232 230 232 234 241 246 249 254 256 260 268 277 281 286 292 295 297 300 301 301 302 301 300 298 299 299
227 231 230 225 227 224 225 225 229 226 223 231 234 239 236 234 228 229 229 229 230 231 233 232 237 238 243 243 246 248 253 258 264 269 274 279 285 288 291 294 296 297 297 297 297 299 299 297 295
233 223 224 224 225 227 229 227 230 230 226 229 237 235 237 233 232 231 231 230 230 231 238 235 236 241 243 246 249 252 256 261 266 270 274 279 284 286 289 292 296 297 297 296 295 297 301 299 296
228 224 224 229 225 228 230 230 230 234 231 229 232 234 233 234 232 231 232 234 233 234 237 242 240 239 242 245 250 253 257 260 266 272 277 281 284 288 291 293 296 297 299 299 296 293 292 292 295
224 218 220 226 222 218 231 230 229 228 228 228 229 232 231 232 234 234 235 238 240 240 241 243 244 243 244 247 253 258 262 268 274 277 278 280 284 286 290 291 292 292 296 297 293 292 292 288 293
209 217 222 220 222 222 227 230 229 225 224 224 230 235 236 234 234 236 234 235 238 238 238 240 243 248 250 254 258 264 269 270 271 273 276 279 283 287 290 292 291 294 297 297 295 292 288 292 294
214 212 213 217 219 221 213 222 230 226 224 230 227 228 228 231 232 236 236 236 236 237 240 242 245 249 252 255 260 263 267 269 272 275 276 279 285 289 290 292 293 292 289 294 297 294 289 297 301
211 208 204 213 216 222 214 216 224 220 218 223 223 223 233 230 233 235 236 236 237 241 244 246 247 251 257 260 263 266 270 273 275 280 284 288 289 289 291 288 288 298 284 295 294 299 296 299 301
224 211 221 209 215 220 222 221 217 221 226 230 231 235 228 230 230 231 233 235 242 247 246 245 247 250 254 255 260 266 271 276 281 284 292 289 288 289 290 287 290 294 288 297 296 300 299 301 303
211 226 221 217 218 215 228 227 225 219 228 230 233 226 231 229 233 234 234 239 239 245 247 247 250 257 259 261 265 270 274 280 282 291 288 288 287 295 284 287 287 293 295 295 296 300 301 306 307
212 226 235 215 217 220 226 225 228 216 219 229 230 242 243 234 232 235 237 243 247 246 251 253 256 260 260 262 265 276 283 289 259 289 286 278 283 292 287 291 295 293 296 299 304 305 303 301 301
221 224 216 207 218 216 221 224 225 223 216 224 228 236 235 236 237 229 228 238 242 248 242 242 246 249 257 260 268 266 284 283 270 282 281 278 287 288 291 294 297 304 301 300 302 301 302 301 300
225 231 218 202 206 218 219 227 224 222 225 228 229 233 232 235 237 242 237 242 243 246 252 252 254 264 267 281 286 280 275 272 272 274 281 294 289 292 294 298 299 297 297 298 300 300 300 299 298
207 192 173 167 171 198 218 225 228 228 224 233 227 234 231 232 231 236 242 243 240 250 257 258 260 272 275 279 271 267 267 265 266 272 279 289 293 290 289 292 295 298 298 298 297 298 298 298 298
208 200 167 148 154 161 191 211 217 212 213 212 208 207 207 211 221 224 228 231 243 246 251 254 263 265 263 257 262 267 272 276 277 280 281 282 285 288 290 293 295 297 298 298 298 298 298 299 299
209 209 198 200 144 152 182 194 195 201 189 197 199 201 202 203 207 218 226 230 231 233 241 242 248 256 260 265 263 265 269 272 273 274 280 285 288 289 291 294 295 296 296 296 297 298 300 301 301
Height
5841 5841 5842 5843 5847 5845 5845 5850 5850 5851 5853 5852 5854 5856 5857 5857 5860 5864 5862 5863 5864 5865 5866 5866 5866 5867 5867 5867 5867 5868 5868 5868 5869 5870 5870 5870 5871 5871 5871 5871 5870 5870 5869 5869 5868 5867 5867 5866 5865
5837 5839 5840 5841 5843 5843 5845 5848 5849 5851 5852 5851 5854 5855 5856 5857 5858 5860 5862 5863 5864 5865 5866 5867 5867 5867 5867 5868 5868 5868 5869 5869 5870 5871 5871 5871 5871 5871 5871 5871 5870 5870 5869 5869 5868 5867 5867 5866 5864
5834 5835 5837 5837 5839 5842 5844 5846 5848 5850 5851 5853 5854 5855 5855 5857 5858 5860 5861 5862 5863 5865 5866 5866 5867 5867 5868 5868 5869 5869 5869 5870 5870 5870 5871 5871 5871 5870 5870 5870 5870 5869 5869 5868 5867 5866 5866 5865 5864
5830 5832 5833 5834 5839 5840 5841 5844 5847 5849 5850 5851 5853 5854 5855 5856 5857 5859 5860 5862 5863 5864 5865 5866 5866 5867 5867 5868 5868 5869 5869 5869 5869 5870 5870 5870 5870 5869 5869 5869 5869 5869 5868 5867 5866 5864 5863 5862 5861
5825 5828 5828 5832 5835 5837 5838 5840 5844 5846 5849 5851 5852 5854 5854 5854 5856 5858 5859 5861 5862 5863 5864 5866 5866 5867 5867 5868 5868 5869 5869 5869 5869 5868 5868 5868 5868 5868 5868 5868 5868 5867 5866 5865 5864 5863 5862 5860 5859
5821 5823 5825 5830 5834 5833 5835 5838 5842 5845 5846 5848 5850 5852 5853 5853 5854 5857 5858 5860 5861 5862 5864 5865 5866 5867 5867 5868 5868 5868 5868 5868 5868 5868 5868 5868 5867 5867 5867 5867 5866 5865 5864 5863 5861 5860 5858 5857 5856
5816 5818 5822 5826 5829 5830 5832 5835 5838 5840 5842 5843 5847 5850 5852 5851 5853 5856 5857 5859 5860 5861 5862 5864 5865 5866 5866 5867 5867 5868 5868 5868 5868 5867 5867 5867 5867 5867 5866 5866 5865 5864 5863 5861 5860 5858 5856 5854 5853
5810 5813 5818 5820 5825 5828 5829 5832 5835 5837 5840 5840 5843 5847 5849 5849 5851 5854 5856 5858 5860 5861 5861 5862 5864 5865 5865 5866 5867 5867 5867 5867 5867 5867 5867 5866 5866 5866 5865 5865 5864 5862 5861 5859 5857 5855 5854 5852 5851
5803 5808 5810 5815 5820 5825 5826 5828 5831 5835 5835 5837 5839 5844 5847 5847 5849 5852 5855 5856 5858 5860 5860 5862 5863 5864 5865 5865 5865 5866 5866 5866 5866 5865 5865 5865 5865 5864 5863 5862 5861 5860 5858 5857 5855 5854 5852 5850 5848
5795 5800 5807 5810 5815 5817 5821 5824 5826 5831 5831 5834 5837 5841 5843 5844 5846 5848 5851 5853 5855 5857 5858 5860 5861 5863 5863 5864 5864 5864 5865 5865 5864 5864 5864 5863 5863 5863 5862 5860 5859 5857 5856 5855 5853 5851 5850 5848 5846
5786 5792 5798 5803 5809 5811 5815 5818 5822 5825 5828 5831 5833 5838 5840 5841 5843 5845 5848 5850 5852 5854 5856 5857 5859 5860 5861 5862 5862 5863 5863 5863 5863 5863 5863 5862 5862 5861 5859 5858 5857 5855 5853 5852 5850 5849 5847 5845 5842
5778 5784 5789 5794 5800 5805 5807 5812 5817 5820 5825 5825 5829 5833 5835 5838 5840 5842 5845 5847 5849 5851 5853 5855 5856 5858 5858 5859 5859 5860 5860 5861 5861 5860 5860 5860 5860 5859 5858 5857 5855 5853 5851 5850 5848 5846 5844 5841 5839
5770 5777 5778 5784 5789 5795 5800 5803 5809 5815 5818 5820 5825 5828 5831 5833 5835 5838 5842 5843 5845 5847 5849 5852 5853 5855 5856 5856 5857 5858 5859 5859 5859 5859 5858 5857 5856 5856 5855 5854 5853 5852 5850 5848 5845 5843 5840 5837 5834
5761 5769 5770 5772 5778 5786 5792 5794 5801 5808 5811 5815 5820 5824 5827 5829 5831 5835 5838 5838 5841 5843 5844 5847 5850 5851 5852 5853 5854 5856 5857 5857 5856 5856 5855 5855 5854 5853 5852 5851 5849 5848 5846 5845 5842 5840 5837 5834 5830
5751 5757 5760 5763 5769 5776 5783 5786 5792 5801 5805 5806 5812 5818 5821 5825 5827 5830 5832 5834 5836 5838 5840 5842 5845 5847 5848 5850 5850 5852 5853 5853 5853 5852 5851 5851 5850 5850 5849 5847 5846 5844 5842 5840 5837 5835 5831 5828 5824
5741 5744 5746 5757 5759 5766 5772 5778 5786 5793 5797 5801 5805 5811 5815 5819 5822 5825 5828 5830 5833 5837 5836 5838 5840 5842 5844 5845 5847 5848 5848 5849 5849 5848 5847 5846 5845 5844 5843 5842 5840 5839 5836 5833 5831 5828 5825 5821 5816
5723 5727 5737 5745 5750 5756 5761 5769 5777 5783 5789 5793 5799 5804 5808 5812 5817 5821 5823 5825 5829 5832 5835 5834 5836 5837 5839 5841 5842 5842 5843 5844 5843 5843 5842 5841 5840 5838 5837 5835 5834 5832 5830 5828 5825 5821 5817 5813 5808
5712 5717 5726 5732 5741 5744 5751 5759 5766 5774 5781 5786 5792 5797 5801 5806 5810 5814 5817 5820 5823 5828 5830 5833 5832 5832 5835 5835 5836 5836 5837 5838 5837 5837 5836 5835 5834 5833 5831 5828 5826 5824 5821 5819 5816 5813 5810 5804 5799
5699 5703 5710 5724 5734 5738 5741 5749 5756 5763 5770 5776 5782 5788 5794 5799 5802 5807 5812 5815 5819 5822 5825 5826 5828 5827 5828 5830 5830 5831 5831 5832 5832 5831 5830 5829 5827 5826 5824 5821 5817 5814 5812 5808 5805 5801 5797 5793 5789
5684 5693 5704 5712 5722 5727 5734 5740 5744 5750 5760 5769 5775 5780 5785 5792 5796 5801 5805 5810 5814 5816 5817 5820 5821 5823 5822 5823 5825 5825 5825 5825 5824 5824 5822 5821 5819 5817 5815 5813 5809 5805 5802 5797 5793 5789 5785 5783 5780
5673 5683 5692 5698 5711 5716 5724 5727 5732 5741 5749 5757 5765 5771 5775 5782 5789 5793 5797 5802 5806 5808 5810 5812 5814 5815 5817 5817 5818 5818 5818 5817 5816 5815 5814 5813 5811 5808 5805 5802 5799 5795 5791 5787 5782 5778 5775 5772 5769
5667 5675 5679 5688 5694 5700 5711 5716 5720 5730 5741 5747 5754 5763 5769 5775 5782 5787 5791 5794 5797 5801 5803 5805 5806 5808 5809 5809 5810 5810 5810 5810 5808 5807 5806 5804 5802 5797 5795 5791 5787 5783 5779 5775 5772 5768 5764 5760 5756
5651 5662 5669 5677 5685 5693 5698 5707 5717 5723 5729 5738 5746 5754 5762 5768 5774 5780 5784 5788 5791 5793 5795 5797 5798 5799 5799 5800 5800 5801 5802 5802 5801 5799 5797 5792 5789 5786 5783 5781 5777 5773 5768 5764 5761 5757 5752 5747 5742
5653 5659 5662 5674 5679 5678 5688 5698 5704 5714 5723 5726 5735 5746 5755 5760 5766 5772 5776 5780 5784 5786 5788 5789 5790 5790 5791 5791 5793 5792 5793 5792 5789 5787 5786 5780 5779 5775 5773 5770 5766 5762 5758 5754 5750 5745 5740 5736 5731
5641 5654 5664 5666 5665 5668 5683 5690 5697 5710 5717 5723 5732 5739 5747 5753 5759 5764 5768 5771 5773 5777 5781 5782 5783 5783 5784 5785 5785 5784 5783 5782 5774 5776 5775 5772 5769 5766 5763 5760 5755 5752 5749 5745 5740 5735 5729 5724 5718
5639 5651 5654 5652 5658 5666 5675 5677 5688 5700 5710 5717 5724 5730 5735 5742 5748 5754 5759 5763 5764 5768 5771 5773 5774 5775 5776 5776 5778 5774 5774 5772 5770 5768 5766 5763 5759 5757 5754 5750 5745 5742 5739 5733 5727 5722 5716 5711 5706
5634 5647 5648 5648 5652 5661 5666 5673 5684 5694 5702 5707 5714 5720 5726 5734 5740 5744 5749 5754 5756 5759 5762 5764 5765 5765 5766 5766 5766 5765 5763 5763 5762 5760 5757 5751 5749 5747 5743 5739 5735 5730 5725 5720 5715 5710 5705 5699 5693
5635 5642 5643 5645 5651 5653 5660 5669 5677 5685 5693 5701 5707 5712 5717 5722 5729 5735 5740 5744 5749 5750 5752 5754 5757 5757 5756 5757 5756 5755 5753 5753 5751 5749 5747 5744 5741 5738 5734 5729 5724 5718 5713 5708 5703 5697 5691 5685 5679
5632 5634 5635 5641 5647 5648 5655 5664 5672 5679 5687 5693 5700 5705 5710 5716 5721 5726 5732 5735 5739 5742 5744 5744 5746 5746 5747 5747 5747 5747 5746 5745 5743 5741 5738 5734 5731 5727 5723 5718 5713 5708 5703 5697 5691 5685 5678 5672 5666
5620 5628 5634 5641 5645 5645 5653 5663 5668 5675 5681 5686 5692 5698 5704 5710 5716 5721 5725 5730 5732 5735 5735 5736 5737 5739 5739 5740 5740 5740 5739 5738 5735 5732 5729 5725 5721 5716 5711 5706 5701 5696 5690 5684 5678 5671 5665 5659 5652